Location: Dattensoll
(49.9928°N, 9.8954°E)
Time: 01:59:34
(UTC+00:00)

Lacrosse 4 Rocket - Pass Details

Date: 19 May 2025
Orbit: 513 x 576 km, 68.0° (Epoch: 23 June)

Event Time Altitude Azimuth Distance (km) Brightness Sun altitude
Rises 20:17:46 0° 252° (WSW) 2,640 5.1 -9.6°
Reaches altitude 10° 20:20:18 10° 268° (W) 1,765 4.5 -9.9°
Maximum altitude 20:23:24 22° 320° (NW) 1,203 4.2 -10.2°
Drops below altitude 10° 20:26:33 10° 12° (NNE) 1,800 4.5 -10.6°
Sets 20:29:10 0° 29° (NNE) 2,708 5.2 -10.8°
